Beja current weather conditions

sailwx.info

Wind from 280 at 3 knots

Air temperature 20.0° C
Visibility: greater than 5.4 NM
Dewpoint 14.0° C

Last reported at 2014-Oct-31 19:00 UTC.
Time now 2014-Nov-01 09:45 UTC

Location: N 38°05' W 007°56'.
View on Google Maps.

See reports from other nearby stations

  
Tides and Currents Weather Stations Pressure Air Temp Water Temp Dewpoint Dewpoint Depression Visibility Wind Speed Wind Dir Waves Ship Positions
date/time (UTC)wind fromknots sea level pressurealtimeterstation pressurevisibilityair tempwater tempwave heightnotes
2014-Oct-31 19:00 280 3 5.420.0
2014-Oct-31 18:00 310 7 5.421.0
2014-Oct-31 17:00 190 9 23.0
2014-Oct-31 16:00 170 10 25.0
2014-Oct-31 15:00 170 9 25.0
2014-Oct-31 14:00 160 12 25.0
2014-Oct-31 13:00 160 14 25.0
2014-Oct-31 12:00 160 20 24.0
2014-Oct-31 11:00 160 16 22.0
2014-Oct-31 10:00 130 7 20.0
2014-Oct-31 09:00 110 6 17.0
2014-Oct-31 08:00 110 6 13.0
2014-Oct-31 07:00 100 6 13.0
2014-Oct-31 06:00 110 7 13.0
2014-Oct-31 05:00 120 4 13.0
2014-Oct-31 04:00 090 3 13.0
2014-Oct-31 03:00 090 5 14.0
2014-Oct-31 02:00 090 4 15.0
2014-Oct-31 01:00 110 6 15.0
2014-Oct-31 00:00 100 5 16.0
2014-Oct-30 23:00 100 6 17.0
2014-Oct-30 22:00 100 6 17.0
2014-Oct-30 21:00 160 6 18.0
2014-Oct-30 20:00 160 9 19.0
2014-Oct-30 19:00 170 7 21.0
2014-Oct-30 18:00 170 8 22.0
2014-Oct-30 17:00 170 11 25.0
2014-Oct-30 16:00 170 13 5.426.0 Smoke.
2014-Oct-30 15:00 170 12 27.0
2014-Oct-30 14:00 160 13 27.0
2014-Oct-30 13:00 140 13 26.0
2014-Oct-30 12:00 140 14 25.0
2014-Oct-30 11:00 140 14 23.0
2014-Oct-30 10:00 120 9 20.0
2014-Oct-30 09:00 100 5 17.0